[[{"header":{"parameterUnit":"m.s-1","parameterCategory":1,"la1":30.2991,"la2":30.254,"lo1":-89.0895,"lo2":-89.0444,"dy":0.0017,"dx":0.0017,"nx":28,"ny":28,"refTime":"2025-08-07T21:00:00:Z","depth":0,"parameterNumber":2,"parameterNumberName":"U-component_of_WINDS"},"data":[0,0,0,0,0,0,0,0,0,0,0,0,0,0,0,0,0,0,0,0,0,0,0,0,0,0,0,0,0,0,0,0,0,0,0,0,0,0,0,0,0,0,0,0,0,0,0,0,0,0,0,0,0,0,0,0,0,0,-1.9679,-1.9679,0,-1.9673,-1.9673,-1.9673,-1.9605,-1.9604,-1.9602,-1.96,-1.9596,-1.9598,-1.9599,0,0,0,0,0,0,0,0,0,0,0,0,0,-1.9637,-1.9639,-1.9679,-1.9679,-1.9679,-1.9673,-1.9673,-1.9673,-1.9606,-1.9603,-1.9601,-1.9599,-1.9596,-1.9598,-1.9599,0,0,0,0,0,0,0,0,0,0,0,0,0,-1.9646,-1.9639,-1.9679,-1.9645,-1.9642,-1.9673,-1.9673,-1.9673,-1.9606,-1.9603,-1.9601,-1.9599,-1.9595,-1.9597,-1.96,-1.9664,0,0,-1.9606,-1.9607,0,0,0,0,0,0,0,0,-1.9645,-1.9647,-1.965,-1.9647,-1.9644,-1.9637,-1.9656,-1.967,-1.9607,-1.962,-1.96,-1.9597,-1.9612,-1.9613,-1.9617,-1.9664,-1.9664,-1.9607,-1.9608,-1.9609,-1.961,0,0,0,0,0,0,0,-1.9645,-1.9647,-1.9677,-1.965,-1.9646,-1.9631,-1.9629,-1.9659,-1.963,-1.9618,-1.9613,-1.9613,-1.961,-1.9615,-1.9617,-1.9664,-1.9607,-1.9609,-1.961,-1.9611,-1.9765,-1.9768,0,0,0,0,0,0,-1.9649,-1.9647,-1.9677,-1.9677,-1.9638,-1.9634,-1.9632,-1.9642,-1.963,-1.9625,-1.9616,-1.961,-1.9613,-1.9614,-1.9616,-1.9691,-1.9609,-1.9611,-1.9612,-1.9762,-1.9766,-1.9769,0,0,0,0,0,0,-1.9648,-1.9652,-1.9677,-1.9661,-1.9663,-1.9637,-1.9649,-1.9643,-1.9648,-1.9628,-1.9623,-1.9626,-1.9611,-1.9613,-1.9653,-1.969,-1.9612,-1.9614,-1.9759,-1.9763,-1.9767,-1.9842,0,0,0,0,0,0,-1.9647,-1.9652,-1.9675,-1.9662,-1.9664,-1.9713,-1.9651,-1.9645,-1.9652,-1.9645,-1.9636,-1.9632,-1.9609,-1.965,-1.9655,-1.9692,-1.9616,-1.9756,-1.9761,-1.9766,-1.9836,-1.9849,-1.9859,0,0,0,0,0,-1.9646,-1.9697,-1.9677,-1.9681,-1.9692,-1.9715,-1.9716,-1.9688,-1.9655,-1.9679,-1.9666,-1.9632,-1.9686,-1.9655,-1.966,-1.9698,-1.9753,-1.976,-1.9766,-1.9831,-1.9846,-1.9859,0,0,0,0,0,0,-1.9716,-1.9694,-1.9672,-1.972,-1.972,-1.9704,-1.9732,-1.9704,-1.9714,-1.9707,-1.9673,-1.9671,-1.9717,-1.9712,-1.9677,-1.9761,-1.9714,-1.9721,-1.9762,-1.9776,-1.9787,-1.9787,-1.9618,0,0,0,0,0,-1.9737,-1.9756,-1.9737,-1.9781,-1.9783,-1.9758,-1.9767,-1.9745,-1.9744,-1.9744,-1.9734,-1.9735,-1.9752,-1.9764,-1.9779,-1.9836,-1.9834,-1.9865,-1.9877,-1.9886,-1.9892,-1.9924,-1.9937,-1.9789,-1.9789,-1.9789,0,0,-1.978,-1.9771,-1.9786,-1.9795,-1.9793,-1.9815,-1.9758,-1.9784,-1.98,-1.9748,-1.9784,-1.9778,-1.9777,-1.9826,-1.9848,-1.9823,-1.9933,-1.9894,-1.9902,-1.9903,-1.9931,-1.9946,-1.9958,-1.9794,-1.9793,-1.9792,0,0,-1.9871,-1.9866,-1.9902,-1.9901,-1.9898,-1.9881,-1.9891,-1.9879,-1.9873,-1.9909,-1.9871,-1.9891,-1.9921,-1.9922,-1.9927,-2.0021,-1.999,-2.0027,-2.0085,-2.0116,-2.0127,-2.0138,-2.0171,-2.0184,-2.0034,-2.0034,-2.0034,0,-1.9925,-1.9955,-1.9925,-1.9953,-1.9959,-1.9913,-1.9951,-1.9951,-1.9954,-1.996,-1.9933,-1.997,-1.9967,-2.0016,-2.0039,-2.0045,-2.0055,-2.0026,-2.0128,-2.0138,-2.0147,-2.0179,-2.0192,-2.0038,-2.0038,-2.0037,-2.0037,0,-2.0023,-2.0045,-2.0075,-2.0078,-2.0088,-2.0121,-2.0096,-2.011,-2.0089,-2.0076,-2.0115,-2.0109,-2.0122,-2.0133,-2.0112,-2.018,-2.0165,-2.0134,-2.0086,-2.0166,-2.0195,-2.0207,-2.0045,-2.0043,-2.0042,-2.0041,0,0,-2.0154,-2.0141,-2.0153,-2.0154,-2.0149,-2.0166,-2.0198,-2.021,-2.0223,-2.0227,-2.0254,-2.0282,-2.0253,-2.0259,-2.0238,-2.0266,-2.0341,-2.0231,-2.0231,-2.0251,-2.0416,-2.0439,-2.0453,-2.0322,-2.0324,-2.0326,-2.0416,0,-2.0241,-2.0293,-2.0267,-2.0323,-2.0344,-2.0302,-2.033,-2.0331,-2.0321,-2.0338,-2.0327,-2.0347,-2.0308,-2.0312,-2.0337,-2.0326,-2.0373,-2.032,-2.0346,-2.0348,-2.0346,-2.0468,-2.0492,-2.0577,-2.0427,-2.0429,-2.043,0,-2.0348,-2.0356,-2.0414,-2.0406,-2.0414,-2.0439,-2.0449,-2.0466,-2.0467,-2.0458,-2.0465,-2.0439,-2.0472,-2.0426,-2.0471,-2.0435,-2.0445,-2.0442,-2.0445,-2.0445,-2.0393,-2.0471,-2.0603,-2.0616,-2.0448,-2.0447,-2.0445,0,-2.0438,-2.0464,-2.0501,-2.0504,-2.0496,-2.0515,-2.0513,-2.0511,-2.0521,-2.0531,-2.0537,-2.0551,-2.0558,-2.057,-2.055,-2.0518,-2.0598,-2.055,-2.0592,-2.0592,-2.0609,-2.0608,-2.0744,-2.0618,-2.0617,-2.0617,-2.0617,0,-2.0536,-2.0573,-2.0542,-2.0565,-2.0606,-2.0578,-2.0619,-2.0613,-2.0612,-2.0635,-2.0601,-2.0623,-2.0594,-2.0614,-2.0599,-2.0639,-2.0643,-2.0637,-2.0632,-2.0639,-2.064,-2.0644,-2.0637,-2.0621,-2.062,-2.0619,-2.0619,0,-2.0642,-2.0622,-2.0661,-2.0651,-2.0649,-2.068,-2.0672,-2.0694,-2.0682,-2.0711,-2.0717,-2.0699,-2.0721,-2.0702,-2.0723,-2.0713,-2.0766,-2.0753,-2.0765,-2.0761,-2.0804,-2.08,-2.0947,-2.0965,-2.0828,-2.0829,-2.083,0,-2.0705,-2.0733,-2.0726,-2.0738,-2.0737,-2.0758,-2.0767,-2.0742,-2.0754,-2.0758,-2.078,-2.0799,-2.0813,-2.0851,-2.084,-2.0857,-2.0844,-2.0894,-2.0846,-2.0853,-2.0844,-2.0842,-2.0845,-2.0904,-2.0905,-2.0906,-2.0908,0,-2.082,-2.0809,-2.0824,-2.0836,-2.0849,-2.0858,-2.0864,-2.0876,-2.085,-2.0866,-2.0887,-2.0898,-2.0921,-2.094,-2.0954,-2.0953,-2.0927,-2.0923,-2.0934,-2.0941,-2.0946,-2.0943,-2.0791,-2.0919,-2.0918,-2.0917,-2.0917,-2.0916,-2.0906,-2.0929,-2.0927,-2.0946,-2.0948,-2.0955,-2.0975,-2.0967,-2.0984,-2.0999,-2.0984,-2.1011,-2.1013,-2.1029,-2.1032,-2.1053,-2.1032,-2.1048,-2.1051,-2.1055,-2.1061,-2.0944,-2.1056,-2.1056,-2.1055,-2.1055,-2.1055,0,-2.1018,-2.1016,-2.1033,-2.1042,-2.1058,-2.1031,-2.1037,-2.1052,-2.1076,-2.108,-2.1094,-2.112,-2.114,-2.1132,-2.115,-2.1169,-2.1158,-2.1175,-2.1172,-2.1173,-2.1079,-2.1068,-2.1184,-2.1184,-2.1184,-2.1184,-2.1184,-2.1184,-2.1078,-2.1115,-2.1105,-2.1144,-2.1142,-2.1167,-2.1173,-2.118,-2.1183,-2.1214,-2.123,-2.1224,-2.1224,-2.1242,-2.126,-2.1257,-2.1265,-2.1287,-2.128,-2.1192,-2.1179,-2.1167,-2.1156,-2.1289,-2.1289,-2.1371,-2.1372,-2.1373]},{"header":{"parameterUnit":"m.s-1","parameterCategory":1,"la1":30.2991,"la2":30.254,"lo1":-89.0895,"lo2":-89.0444,"dy":0.0017,"dx":0.0017,"nx":28,"ny":28,"refTime":"2025-08-07T21:00:00:Z","depth":0,"parameterNumber":3,"parameterNumberName":"V-component_of_WINDS"},"data":[0,0,0,0,0,0,0,0,0,0,0,0,0,0,0,0,0,0,0,0,0,0,0,0,0,0,0,0,0,0,0,0,0,0,0,0,0,0,0,0,0,0,0,0,0,0,0,0,0,0,0,0,0,0,0,0,0,0,2.1278,2.1279,0,2.1312,2.1313,2.1313,2.1367,2.1368,2.1369,2.137,2.1401,2.1401,2.1401,0,0,0,0,0,0,0,0,0,0,0,0,0,2.1258,2.1258,2.1278,2.1279,2.1279,2.1312,2.1313,2.1313,2.1367,2.1368,2.1369,2.137,2.1401,2.1401,2.1401,0,0,0,0,0,0,0,0,0,0,0,0,0,2.1276,2.1258,2.1278,2.131,2.1313,2.1312,2.1313,2.1313,2.1366,2.1368,2.1369,2.1371,2.1402,2.1401,2.1401,2.1371,0,0,2.1401,2.1401,0,0,0,0,0,0,0,0,2.1275,2.1277,2.1305,2.1308,2.1311,2.1337,2.1317,2.1333,2.1366,2.1346,2.137,2.1371,2.1379,2.138,2.1384,2.1373,2.1374,2.1401,2.1401,2.1401,2.1401,0,0,0,0,0,0,0,2.1274,2.1276,2.1292,2.1305,2.1309,2.1322,2.1326,2.132,2.1354,2.1348,2.1352,2.1355,2.1381,2.1383,2.1385,2.1375,2.1401,2.1401,2.1401,2.1401,2.1341,2.134,0,0,0,0,0,0,2.1268,2.1275,2.1291,2.1293,2.1297,2.1321,2.1326,2.1327,2.1354,2.1359,2.1354,2.1358,2.1383,2.1385,2.1386,2.1353,2.1401,2.1401,2.1401,2.1343,2.1341,2.1339,0,0,0,0,0,0,2.1268,2.1269,2.1289,2.1285,2.1288,2.132,2.1321,2.1327,2.133,2.1359,2.1364,2.1351,2.1384,2.1386,2.1375,2.1355,2.1401,2.1401,2.1345,2.1342,2.134,2.1286,0,0,0,0,0,0,2.1267,2.1269,2.1258,2.1284,2.1288,2.1278,2.132,2.1327,2.133,2.1335,2.1357,2.1362,2.1385,2.1375,2.1375,2.1355,2.1401,2.1346,2.1344,2.1341,2.1289,2.1282,2.1275,0,0,0,0,0,2.1266,2.1241,2.1257,2.1259,2.1276,2.1277,2.1279,2.1307,2.1328,2.1318,2.1336,2.1362,2.1357,2.1373,2.1374,2.1354,2.1348,2.1344,2.1341,2.1293,2.1283,2.1275,0,0,0,0,0,0,2.121,2.1245,2.1263,2.1246,2.1258,2.1286,2.1273,2.1297,2.1302,2.1307,2.134,2.1345,2.1329,2.1341,2.1358,2.1326,2.1356,2.1353,2.1319,2.1311,2.1304,2.1301,2.1401,0,0,0,0,0,2.1196,2.1195,2.1225,2.1206,2.1212,2.1241,2.1243,2.1264,2.1277,2.1282,2.13,2.1311,2.1312,2.1312,2.1315,2.1292,2.1297,2.1278,2.1271,2.1265,2.1262,2.125,2.1242,2.1328,2.1328,2.1328,0,0,2.1166,2.1185,2.1182,2.1196,2.1208,2.1205,2.1245,2.124,2.1238,2.1281,2.1272,2.1285,2.13,2.1283,2.1276,2.1291,2.1239,2.1261,2.1256,2.1256,2.1246,2.1237,2.123,2.1326,2.1326,2.1326,0,0,2.1111,2.1125,2.1112,2.1123,2.1141,2.1161,2.1158,2.1182,2.1193,2.1185,2.1217,2.1214,2.1216,2.1225,2.123,2.1179,2.1203,2.1179,2.1142,2.113,2.1123,2.1118,2.1099,2.1092,2.1175,2.1175,2.1175,0,2.1071,2.1069,2.1102,2.1095,2.11,2.114,2.1126,2.1135,2.1153,2.1155,2.1173,2.1176,2.1188,2.1174,2.1161,2.1164,2.1161,2.1176,2.1122,2.1116,2.1111,2.1094,2.1087,2.1172,2.1173,2.1173,2.1173,0,2.102,2.1018,2.1005,2.1022,2.1026,2.1015,2.1045,2.1045,2.1065,2.1083,2.1074,2.1091,2.1098,2.1096,2.1116,2.1084,2.1093,2.1116,2.1147,2.11,2.1084,2.1078,2.1168,2.1169,2.117,2.1171,0,0,2.0929,2.0965,2.096,2.0968,2.0991,2.099,2.0982,2.099,2.0988,2.0999,2.0992,2.0993,2.1015,2.102,2.1041,2.1031,2.0989,2.1055,2.1056,2.1042,2.0955,2.0938,2.0929,2.1006,2.1004,2.1004,2.0954,0,2.0878,2.0867,2.0896,2.0877,2.0875,2.0913,2.0906,2.0919,2.0936,2.0936,2.0954,2.0954,2.0983,2.0986,2.0978,2.0996,2.0972,2.1,2.0999,2.0998,2.0993,2.0921,2.0903,2.0855,2.0948,2.0947,2.0946,0,2.0817,2.0826,2.0807,2.0832,2.0832,2.0825,2.0835,2.0835,2.0851,2.0863,2.087,2.0895,2.0888,2.0918,2.0908,2.0927,2.0928,2.0937,2.0936,2.0936,2.0969,2.0919,2.084,2.0833,2.0937,2.0938,2.0938,0,2.0752,2.076,2.0749,2.0755,2.0784,2.0778,2.079,2.0807,2.081,2.0818,2.082,2.0827,2.0831,2.0835,2.0861,2.0881,2.0848,2.088,2.0857,2.0857,2.0848,2.0848,2.0768,2.085,2.085,2.085,2.085,0,2.0692,2.0679,2.0721,2.0714,2.0701,2.0734,2.0719,2.0734,2.0749,2.0746,2.0779,2.0775,2.081,2.081,2.083,2.0818,2.082,2.0829,2.0835,2.0826,2.0825,2.0827,2.083,2.0848,2.0849,2.0849,2.0849,0,2.0617,2.0645,2.0636,2.0665,2.0672,2.066,2.0684,2.0679,2.0698,2.0693,2.0694,2.0724,2.0725,2.0752,2.0758,2.0772,2.0752,2.0764,2.0747,2.075,2.0726,2.0728,2.0644,2.0634,2.0722,2.0722,2.0721,0,2.0577,2.0568,2.0595,2.0596,2.0606,2.0607,2.0611,2.0643,2.0645,2.0662,2.0655,2.0659,2.0664,2.0664,2.0686,2.0691,2.0703,2.0673,2.0704,2.0695,2.0702,2.0702,2.0701,2.0666,2.0665,2.0664,2.0663,0,2.0501,2.0516,2.052,2.053,2.0533,2.0542,2.0553,2.0551,2.0587,2.0587,2.059,2.0594,2.0601,2.0604,2.0614,2.0625,2.0649,2.0654,2.0649,2.0639,2.063,2.0634,2.0729,2.0655,2.0656,2.0657,2.0657,2.0658,2.0442,2.0436,2.0455,2.0459,2.0471,2.048,2.0476,2.0496,2.0499,2.0508,2.0527,2.0526,2.0542,2.0557,2.0566,2.0565,2.058,2.0573,2.0571,2.0569,2.0564,2.0631,2.0567,2.0567,2.0568,2.0568,2.0568,0,2.0368,2.0383,2.0386,2.0401,2.0403,2.0428,2.0441,2.0442,2.0441,2.0454,2.0459,2.0462,2.0465,2.0487,2.0494,2.0489,2.05,2.0489,2.0489,2.0491,2.055,2.0554,2.048,2.048,2.048,2.048,2.048,2.048,2.033,2.0321,2.0338,2.0335,2.0349,2.035,2.0355,2.0363,2.0374,2.0376,2.038,2.0395,2.0411,2.0419,2.0423,2.043,2.043,2.0415,2.0425,2.0479,2.0487,2.0495,2.0499,2.0415,2.0415,2.0366,2.0366,2.0365]}]]